TimeEDT,TemperatureF,Dew PointF,Humidity,Sea Level PressureIn,VisibilityMPH,Wind Direction,Wind SpeedMPH,Gust SpeedMPH,PrecipitationIn,Events,Conditions,WindDirDegrees,DateUTC
12:54 AM,54.0,50.0,86,29.92,10.0,East,3.5,-,N/A,,Overcast,100,2012-10-02 04:54:00
1:54 AM,53.1,50.0,89,29.93,10.0,ESE,3.5,-,N/A,,Mostly Cloudy,110,2012-10-02 05:54:00
2:54 AM,53.1,50.0,89,29.93,10.0,ESE,6.9,-,N/A,,Mostly Cloudy,120,2012-10-02 06:54:00
3:54 AM,53.1,50.0,89,29.91,10.0,East,4.6,-,N/A,,Mostly Cloudy,100,2012-10-02 07:54:00
4:54 AM,54.0,51.1,90,29.91,10.0,ENE,3.5,-,N/A,,Overcast,70,2012-10-02 08:54:00
5:54 AM,53.1,50.0,89,29.93,10.0,Calm,Calm,-,N/A,,Mostly Cloudy,0,2012-10-02 09:54:00
6:54 AM,55.0,52.0,89,29.92,10.0,Calm,Calm,-,N/A,,Overcast,0,2012-10-02 10:54:00
7:54 AM,55.9,52.0,87,29.94,10.0,East,6.9,-,N/A,,Overcast,90,2012-10-02 11:54:00
8:54 AM,55.9,53.1,90,29.95,10.0,East,4.6,-,N/A,,Overcast,90,2012-10-02 12:54:00
9:19 AM,57.2,53.6,88,29.95,10.0,East,5.8,-,N/A,,Overcast,90,2012-10-02 13:19:00
9:54 AM,57.9,53.1,84,29.96,10.0,East,8.1,-,N/A,,Overcast,100,2012-10-02 13:54:00
10:20 AM,57.2,53.6,88,29.96,10.0,East,6.9,-,0.00,,Light Drizzle,80,2012-10-02 14:20:00
10:54 AM,60.1,55.0,83,29.95,10.0,East,4.6,-,0.00,Rain,Light Rain,80,2012-10-02 14:54:00
11:54 AM,62.1,55.9,80,29.94,10.0,ENE,3.5,-,0.00,,Overcast,70,2012-10-02 15:54:00
12:54 PM,66.0,57.0,73,29.92,10.0,NE,5.8,-,0.00,,Overcast,50,2012-10-02 16:54:00
1:54 PM,64.9,57.9,78,29.92,10.0,NE,4.6,-,N/A,,Overcast,50,2012-10-02 17:54:00
2:54 PM,66.0,59.0,78,29.92,10.0,ENE,4.6,-,0.00,,Light Drizzle,60,2012-10-02 18:54:00
3:54 PM,66.9,59.0,76,29.90,10.0,NE,5.8,-,0.00,,Overcast,40,2012-10-02 19:54:00
4:34 PM,66.2,59.0,78,29.92,10.0,NE,3.5,-,N/A,,Overcast,50,2012-10-02 20:34:00
4:54 PM,66.9,60.1,79,29.91,10.0,Calm,Calm,-,N/A,,Overcast,0,2012-10-02 20:54:00
5:54 PM,66.0,60.1,81,29.93,10.0,ENE,3.5,-,N/A,,Overcast,60,2012-10-02 21:54:00
6:54 PM,64.0,61.0,90,29.93,10.0,ENE,4.6,-,N/A,,Overcast,70,2012-10-02 22:54:00
7:54 PM,64.9,61.0,87,29.94,10.0,ESE,4.6,-,N/A,,Overcast,110,2012-10-02 23:54:00
8:54 PM,64.9,60.1,84,29.96,10.0,ESE,3.5,-,N/A,,Overcast,120,2012-10-03 00:54:00
9:54 PM,64.0,60.1,87,29.97,10.0,East,5.8,-,N/A,,Overcast,100,2012-10-03 01:54:00
10:54 PM,62.1,59.0,90,29.99,10.0,ENE,3.5,-,N/A,,Mostly Cloudy,70,2012-10-03 02:54:00
11:09 PM,62.6,59.0,88,29.99,10.0,ENE,4.6,-,N/A,,Scattered Clouds,60,2012-10-03 03:09:00
11:54 PM,62.1,60.1,93,29.98,10.0,ENE,5.8,-,N/A,,Mostly Cloudy,70,2012-10-03 03:54:00